Location: Newark
(47.5333°N, 8.7000°E)
Time: 11:36:15
(UTC+00:00)

N. Korean satellite - Visible Passes

Search period start: 20 September 2020 00:00
Search period end: 30 September 2020 00:00
Orbit: 455 x 503 km, 97.2° (Epoch: 19 September)

Date Brightness Start Highest point End Pass type
(mag) Time Alt. Az. Time Alt. Az. Time Alt. Az.
20 Sep 9.2 04:23:33 10° NE 04:26:42 26° E 04:29:48 10° SSE visible
21 Sep 9.9 03:58:31 10° ENE 04:00:29 14° E 04:02:26 10° ESE visible
23 Sep 8.3 04:38:38 10° NNE 04:42:06 39° E 04:45:31 10° SSE visible
24 Sep 9.6 04:13:10 10° NE 04:15:56 20° E 04:18:40 10° SE visible
25 Sep 10.4 03:48:59 10° ENE 03:49:40 10° E 03:50:21 10° E visible
27 Sep 8.9 04:28:06 10° NNE 04:31:20 29° E 04:34:31 10° SSE visible
28 Sep 9.8 04:02:54 10° NE 04:05:07 15° E 04:07:19 10° SE visible
